OPS 4682 DEB, 18534

Orbit data source: Space-Track

OPS 4682 DEB, 18534 is space debris in LEO originally from a launch on Sat, 03 Apr 1965 UTC launched from the Air Force Western Test Range (AFWTR). Debris objects in space refer to the collection of defunct objects orbiting the Earth. Examples of debris include non-operational satellites, rocket bodies, and fragments generated from explosions, collisions, or faulty payload assembly.

Loading next visibility...
Identifier
18534, 1965-027AE
Orbit
LEO
Country
Flag of USUS
Related business
Manufacturer
Unknown
Mission
Spacecraft
Bus & Motor
Unknown
Mass
Unknown
Launch date (UTC)
1965-04-03 (61 years ago)
Launch vehicle
Unknown
Launch site
Air Force Western Test Range (AFWTR)
Object type
Payload
Rocket body
Debris
Shape & HBR
Unknown shape, 0.1 m
Radar Cross Section
Small (<0.1 m²)

Expand to show TLE details & history
Last TLE update: 2 days ago

TLE from 2 days ago
0 OPS 4682 DEB
1 18534U 65027AE  26070.82581542  .00000586  00000-0  20285-2 0  9999
2 18534  90.2744  21.5235 0029795  10.1209  18.2086 12.96173619828381
Epoch: 2026-03-11T19:49Z
TLE epoch observation values (Epoch: 2026-03-11T19:49:10.452Z)
Latitude
28.47646°
Longitude
-85.40263°
Altitude
1,258.965 km
Speed
7.238 km/s
True Right ascension
01h 25m 30s
True Declination
28° 20' 31"
Sunlit
Object was in daylight at epoch
Visualization orbit readout
Latitude
Unknown
Longitude
Unknown
Altitude
Unknown
Speed
Unknown
Apparent Right ascension
Unknown
Apparent Declination
Unknown
Sunlit
N/A
Visualization observer readout
Local Sidereal Time
00:41:11
Azimuth
Unknown
Elevation
Unknown
Doppler factor
Unknown
Orbital elements
Apogee altitude
1,297.048 km
Perigee altitude
1,251.448 km
Semi-major axis
7,652.385 km
Eccentricity
0.00298
Inclination
90.2744°
RAAN
21.5235°
Arg. of periapsis
10.1209°
True anomaly
18.31567°
Mean anomaly
18.2086°
Eccentric anomaly
18.2621°
Mean motion
3.24226 °/min
Orbital period
111.03 mins
BSTAR
0.0020285
Loading maneuver chart data...
Computing Atmospheric mass density...
Loading historical data...
Loading historical data...
Loading historical data...
Loading historical data...
Loading historical data...
Loading historical data...
Loading historical data...

Documentation

Showing up to 5 results
|